Flag for United Kingdom Weather past 2 weeks in Oxford, England, United Kingdom

Now
64 °F

Broken clouds.


Feels Like: 64 °F
Forecast: 55 / 66 °F
Wind: 9 mph from South

Location: Benson

Current Time: Aug 28, 2014 at 4:29:05 PM

Latest Report: Aug 28, 2014 at 3:50 PM


Visibility: N/A

Pressure: 29.83 "Hg

Humidity: 94%

Dew point: 63 °F

Location of OxfordLocation

Historic Weather in Oxford — Graph

°F

Oxford temperature yesterday

Maximum temperature yesterday: 66 °F (at 1:50 PM)
Minimum temperature yesterday: 45 °F (at 5:50 AM)
Average temperature yesterday: 58 °F

Past Weeks' High & Low Weather Summary

 TemperatureHumidityPressure
High70 °F (Aug 13, 3:50 PM)100% (Aug 15, 12:50 AM)30.15 "Hg (Aug 15, 12:50 AM)
Low36 °F (Aug 24, 5:50 AM)38% (Aug 17, 2:50 PM)29.53 "Hg (Aug 25, 6:50 PM)
Average57 °F76%29.90 "Hg
* Reported Aug 13 2:50 PM — Aug 28 2:50 PM, Oxford, Weather by CustomWeather, © 2014

Note: Actual official high and low records may vary slightly from our data, if they occured in-between our weather recording intervals... More about our weather records

Advertising

Oxford weather history for previous 24 hours

 ConditionsComfort  
Time TempWeatherWind HumidityBarometerVisibility
2:50 PM
Aug 28
68 °FBroken clouds.18 mph69%29.83 "HgN/A
1:50 PM68 °FScattered clouds.15 mph60%29.83 "HgN/A
12:50 PM68 °FPartly sunny.15 mph64%29.83 "HgN/A
11:50 AM66 °FBroken clouds.15 mph68%29.83 "HgN/A
10:50 AM64 °FPartly sunny.12 mph78%29.83 "HgN/A
9:50 AM63 °FBroken clouds.10 mph83%29.83 "HgN/A
8:50 AM63 °FBroken clouds.6 mph88%29.80 "HgN/A
7:50 AM61 °FPartly sunny.7 mph94%29.80 "HgN/A
6:50 AM63 °FPartly cloudy.7 mph94%29.80 "HgN/A
5:50 AM63 °FLow clouds.8 mph94%29.77 "HgN/A
4:50 AM63 °FPartly cloudy.13 mph94%29.77 "Hg2 mi
3:50 AM63 °FPassing clouds.13 mph94%29.77 "HgN/A
2:50 AM61 °FPartly cloudy.12 mph94%29.77 "Hg3 mi
1:50 AM61 °FPassing clouds.13 mph94%29.80 "Hg3 mi
12:50 AM61 °FPassing clouds.13 mph94%29.83 "Hg4 mi
11:50 PM
Aug 27
61 °FPartly cloudy.13 mph94%29.83 "Hg4 mi
10:50 PM61 °FPassing clouds.14 mph94%29.83 "Hg3 mi
9:50 PM63 °FLight rain. Partly cloudy.14 mph88%29.86 "Hg4 mi
8:50 PM63 °FPartly sunny.13 mph88%29.86 "HgN/A
7:50 PM63 °FPartly sunny.10 mph83%29.86 "HgN/A
6:50 PM63 °FPartly sunny.13 mph83%29.86 "HgN/A
5:50 PM63 °FOvercast.8 mph88%29.89 "HgN/A
4:50 PM64 °FMore clouds than sun.10 mph73%29.89 "HgN/A
Weather by CustomWeather, © 2014

See weather overviewHow to use our weather pages